Weather History for Hailey, ID

Change the Weather History Date:

Friday, July 26, 2013

  Actual Average Record
Temperature  
Mean Temperature 75 °F -  
Max Temperature 91 °F 84 °F 96 °F (2000)
Min Temperature 59 °F 53 °F 46 °F (2014)
Cooling Degree Days 10    
Growing Degree Days 25 (Base 50)    
Moisture  
Dew Point 40 °F    
Average Humidity 33    
Maximum Humidity 45    
Minimum Humidity 16    
Precipitation  
Precipitation 0.00 in - - ()
Sea Level Pressure  
Sea Level Pressure 30.23 in    
Wind  
Wind Speed 10 mph (NW)    
Max Wind Speed 13 mph    
Max Gust Speed 18 mph    
Visibility 10 miles    
Events      
Averages and records for this station are not official NWS values.
T = Trace of Precipitation, MM = Missing Value Source: NWS Daily Summary

Daily Weather History Graph

Daily Weather History Graph

Search for Another Location

Airport:

Trip Planner

Search our weather history database for the weather conditions in past years. The results will help you decide how hot, cold, wet, or windy it might be!

Date:

Astronomy

Jul. 26, 2013 Rise Set
Actual Time 6:20 AM MDT 9:06 PM MDT
Civil Twilight 5:47 AM MDT 9:39 PM MDT
Nautical Twilight 5:05 AM MDT 10:20 PM MDT
Astronomical Twilight 4:16 AM MDT 11:09 PM MDT
Moon 11:10 PM MDT (7/26) 11:11 AM MDT (7/26)
Length of Visible Light 15h 51m
Length of Day
14h 45m
Waning Gibbous, 79% of the Moon is Illuminated
Jul 26
Waning Gibbous
Jul 29
Last Quarter
Aug 6
New
Aug 14
First Quarter
Aug 20
Full

Hourly Weather History & Observations

Time (MDT) Temp. Dew Point Humidity Pressure Visibility Wind Dir Wind Speed Gust Speed Precip Events Conditions
12:15 AM 68.0 °F 41.0 °F 37% 30.22 in 10.0 mi WNW 10.4 mph - N/A   Clear
12:35 AM 68.0 °F 41.0 °F 37% 30.22 in 10.0 mi WNW 10.4 mph - N/A   Clear
12:55 AM 68.0 °F 39.2 °F 35% 30.22 in 10.0 mi WNW 10.4 mph - N/A   Clear
1:15 AM 68.0 °F 39.2 °F 35% 30.23 in 10.0 mi WNW 9.2 mph - N/A   Clear
1:35 AM 68.0 °F 37.4 °F 33% 30.23 in 10.0 mi NW 12.7 mph - N/A   Clear
1:55 AM 68.0 °F 37.4 °F 33% 30.23 in 10.0 mi NW 10.4 mph - N/A   Clear
2:15 AM 68.0 °F 37.4 °F 33% 30.24 in 10.0 mi NW 11.5 mph - N/A   Clear
2:35 AM 66.2 °F 37.4 °F 35% 30.24 in 10.0 mi NW 10.4 mph - N/A   Clear
2:55 AM 66.2 °F 37.4 °F 35% 30.24 in 10.0 mi NW 9.2 mph - N/A   Clear
3:15 AM 64.4 °F 37.4 °F 37% 30.24 in 10.0 mi NW 11.5 mph - N/A   Clear
3:35 AM 64.4 °F 37.4 °F 37% 30.24 in 10.0 mi NW 9.2 mph - N/A   Clear
3:55 AM 64.4 °F 37.4 °F 37% 30.24 in 10.0 mi NW 10.4 mph - N/A   Clear
4:15 AM 62.6 °F 37.4 °F 39% 30.24 in 10.0 mi NW 9.2 mph - N/A   Clear
4:35 AM 62.6 °F 37.4 °F 39% 30.25 in 10.0 mi NW 11.5 mph - N/A   Clear
4:55 AM 62.6 °F 37.4 °F 39% 30.25 in 10.0 mi NW 11.5 mph 17.3 mph N/A   Clear
5:15 AM 62.6 °F 37.4 °F 39% 30.25 in 10.0 mi NW 12.7 mph 18.4 mph N/A   Clear
5:35 AM 62.6 °F 37.4 °F 39% 30.26 in 10.0 mi NW 11.5 mph - N/A   Clear
5:55 AM 60.8 °F 37.4 °F 42% 30.26 in 10.0 mi NW 12.7 mph - N/A   Clear
6:15 AM 60.8 °F 37.4 °F 42% 30.27 in 10.0 mi NNW 10.4 mph - N/A   Clear
6:35 AM 59.0 °F 37.4 °F 45% 30.27 in 10.0 mi NW 12.7 mph 17.3 mph N/A   Clear
6:47 AM 60.8 °F 39.2 °F 45% 30.28 in 10.0 mi WNW 9.2 mph - N/A   Partly Cloudy
6:55 AM 60.8 °F 37.4 °F 42% 30.27 in 10.0 mi NW 10.4 mph - N/A   Clear
7:47 AM 62.6 °F 39.2 °F 42% 30.28 in 10.0 mi WNW 11.5 mph 17.3 mph N/A   Partly Cloudy
8:47 AM 64.4 °F 41.0 °F 42% 30.30 in 10.0 mi WNW 11.5 mph 17.3 mph N/A   Partly Cloudy
9:49 AM 73.4 °F 42.8 °F 33% 30.29 in 10.0 mi WNW 8.1 mph - N/A   Partly Cloudy
10:47 AM 80.6 °F 44.6 °F 28% 30.28 in 10.0 mi WSW 4.6 mph - N/A   Partly Cloudy
11:47 AM 86.0 °F 42.8 °F 22% 30.26 in 10.0 mi SE 6.9 mph - N/A   Partly Cloudy
12:47 PM 87.8 °F 35.6 °F 16% 30.25 in 10.0 mi North 5.8 mph - N/A   Partly Cloudy
1:50 PM 89.6 °F 42.8 °F 20% 30.23 in 10.0 mi SE 8.1 mph - N/A   Scattered Clouds
2:55 PM 87.8 °F 44.6 °F 22% 30.21 in 10.0 mi SSW 6.9 mph - N/A   Scattered Clouds
3:47 PM 89.6 °F 42.8 °F 20% 30.20 in 10.0 mi SE 8.1 mph - N/A   Scattered Clouds
4:50 PM 91.4 °F 39.2 °F 16% 30.17 in 10.0 mi ESE 6.9 mph 16.1 mph N/A   Scattered Clouds
5:47 PM 89.6 °F 39.2 °F 17% 30.16 in 10.0 mi NNW 4.6 mph - N/A   Scattered Clouds
6:47 PM 87.8 °F 50.0 °F 27% 30.15 in 10.0 mi WNW 6.9 mph - N/A   Mostly Cloudy
7:50 PM 84.2 °F 44.6 °F 25% 30.14 in 10.0 mi WNW 5.8 mph - N/A   Mostly Cloudy
8:47 PM 82.4 °F 46.4 °F 28% 30.14 in 10.0 mi NW 11.5 mph - N/A   Mostly Cloudy
9:50 PM 78.8 °F 46.4 °F 32% 30.17 in 10.0 mi WNW 5.8 mph - N/A   Scattered Clouds
10:47 PM 78.8 °F 44.6 °F 30% 30.17 in 10.0 mi West 6.9 mph - N/A   Scattered Clouds
11:15 PM 77.0 °F 44.6 °F 32% 30.18 in 10.0 mi North 8.1 mph - N/A   Clear
11:35 PM 75.2 °F 42.8 °F 31% 30.17 in 10.0 mi Calm Calm - N/A   Clear
11:55 PM 71.6 °F 46.4 °F 41% 30.17 in 10.0 mi NNW 6.9 mph - N/A   Clear